Location: Poughquag
(41.6090°N, 73.6820°W)
Time: 02:33:35
(UTC-04:00)

Explorer 11/Cluster Stage 4 - Pass Details

Date: 02 June 2020
Orbit: 467 x 1259 km, 28.8° (Epoch: 06 July)

Event Time Altitude Azimuth Distance (km) Brightness Sun altitude
Rises 08:21:37 0° 250° (WSW) 3,617 9.5 30.9°
Reaches altitude 10° 08:24:26 10° 239° (WSW) 2,794 9.0 31.4°
Maximum altitude 08:30:18 29° 182° (S) 1,931 8.8 32.5°
Drops below altitude 10° 08:36:54 10° 127° (SE) 3,166 10.5 33.7°
Sets 08:40:19 0° 117° (ESE) 4,178 11.1 34.4°
